FW7194 Weather Reports


Display with metric or nautical units.
time (UTC)temp
F
wind
direction
speed
MPH
gust
MPH
rain 1hr
in
rain 24hr
in
rain mn
in
humidity
%
barometer
mb
20260904115648 78 139 0.0 0.0 0.00 0.00 0.00 95 1017.1
20260904115144 78 143 0.0 0.0 0.00 0.00 0.00 95 1017.0
20260904114643 78 144 0.0 0.0 0.00 0.00 0.00 94 1016.9
20260904114143 77 28 0.0 0.0 0.00 0.00 0.00 94 1016.9
20260904113638 77 24 0.0 0.0 0.00 0.00 0.00 94 1016.8
20260904113137 77 23 0.0 0.0 0.00 0.00 0.00 94 1016.8
20260904112633 77 23 0.0 0.0 0.00 0.00 0.00 94 1016.7
20260904112128 77 23 0.0 0.0 0.00 0.00 0.00 94 1016.6
20260904111624 77 27 0.0 0.0 0.00 0.00 0.00 94 1016.5
20260904111119 77 59 0.0 1.0 0.00 0.00 0.00 94 1016.5
20260904110614 77 222 0.0 0.0 0.00 0.00 0.00 94 1016.3
20260904110109 77 222 0.0 0.0 0.00 0.00 0.00 94 1016.6
20260904105608 77 222 0.0 0.0 0.00 0.00 0.00 94 1016.5
20260904105103 77 222 0.0 0.0 0.00 0.00 0.00 94 1016.3
20260904104559 77 221 0.0 0.0 0.00 0.00 0.00 94 1016.1
20260904104054 77 222 0.0 0.0 0.00 0.00 0.00 94 1016.2
20260904103550 77 219 0.0 0.0 0.00 0.00 0.00 94 1016.1
20260904103046 77 226 0.0 0.0 0.00 0.00 0.00 94 1016.3
20260904102542 77 226 0.0 0.0 0.00 0.00 0.00 94 1016.4
20260904102037 77 226 0.0 0.0 0.00 0.00 0.00 94 1016.3
20260904101534 77 227 0.0 0.0 0.00 0.00 0.00 94 1016.2
20260904101029 77 226 0.0 0.0 0.00 0.00 0.00 94 1016.2
20260904100525 77 226 0.0 0.0 0.00 0.00 0.00 94 1016.2
20260904100020 77 226 0.0 0.0 0.00 0.00 0.00 94 1016.1
20260904095514 77 221 0.0 0.0 0.00 0.00 0.00 94 1016.1
20260904095009 77 227 0.0 0.0 0.00 0.00 0.00 94 1016.0
20260904094504 77 226 0.0 0.0 0.00 0.00 0.00 94 1016.1
20260904093959 77 226 0.0 0.0 0.00 0.00 0.00 94 1016.1
20260904093456 77 226 0.0 0.0 0.00 0.00 0.00 94 1015.7
20260904092950 78 226 0.0 0.0 0.00 0.00 0.00 93 1015.8
20260904092447 78 226 0.0 0.0 0.00 0.00 0.00 93 1015.7
20260904091942 78 227 0.0 0.0 0.00 0.00 0.00 93 1015.9
20260904091438 78 227 0.0 0.0 0.00 0.00 0.00 93 1015.5
20260904090932 78 222 0.0 0.0 0.00 0.00 0.00 93 1015.6
20260904090429 78 217 0.0 0.0 0.00 0.00 0.00 93 1015.6
20260904085923 78 221 0.0 0.0 0.00 0.00 0.00 93 1015.5
20260904085419 78 222 0.0 0.0 0.00 0.00 0.00 93 1015.7
20260904084913 78 221 0.0 0.0 0.00 0.00 0.00 93 1015.5
20260904084409 78 228 0.0 0.0 0.00 0.00 0.00 93 1015.6
20260904083859 78 231 0.0 0.0 0.00 0.00 0.00 93 1015.4
20260904083355 78 247 0.0 0.0 0.00 0.00 0.00 93 1015.5
20260904082851 78 213 0.0 0.0 0.00 0.00 0.00 93 1015.4
20260904082345 78 203 0.0 0.0 0.00 0.00 0.00 93 1015.7
20260904081841 78 216 0.0 0.0 0.00 0.00 0.00 93 1015.5
20260904081336 78 196 0.0 0.0 0.00 0.00 0.00 93 1015.4
20260904080832 78 124 0.0 0.0 0.00 0.00 0.00 93 1015.3
20260904080327 78 201 0.0 0.0 0.00 0.00 0.00 93 1015.4
20260904075824 78 196 0.0 0.0 0.00 0.00 0.00 93 1015.6
20260904075324 78 202 0.0 0.0 0.00 0.00 0.00 93 1015.6
20260904074822 78 203 0.0 0.0 0.00 0.00 0.00 93 1015.6
20260904074317 78 204 0.0 0.0 0.00 0.00 0.00 93 1015.8
20260904073813 78 216 0.0 0.0 0.00 0.00 0.00 92 1015.4
20260904073308 78 216 0.0 0.0 0.00 0.00 0.00 92 1015.6
20260904072805 78 216 0.0 0.0 0.00 0.00 0.00 92 1015.6
20260904072306 79 216 0.0 0.0 0.00 0.00 0.00 92 1015.9
20260904071759 79 217 0.0 0.0 0.00 0.00 0.00 92 1015.6
20260904071254 79 216 0.0 0.0 0.00 0.00 0.00 92 1015.5
20260904070749 79 216 0.0 0.0 0.00 0.00 0.00 92 1015.6
20260904070248 79 216 0.0 0.0 0.00 0.00 0.00 92 1015.7
20260904065743 79 217 0.0 0.0 0.00 0.00 0.00 92 1015.7
20260904065240 79 216 0.0 0.0 0.00 0.00 0.00 92 1015.7
20260904064739 79 208 0.0 0.0 0.00 0.00 0.00 92 1015.8
20260904064235 79 203 0.0 0.0 0.00 0.00 0.00 92 1015.9
20260904063731 79 176 0.0 0.0 0.00 0.00 0.00 92 1015.8
20260904063227 79 186 0.0 0.0 0.00 0.00 0.00 92 1015.9
20260904062723 79 207 0.0 0.0 0.00 0.00 0.00 92 1016.0
20260904062218 79 197 0.0 0.0 0.00 0.00 0.00 92 1015.9
20260904061714 80 199 0.0 0.0 0.00 0.00 0.00 92 1016.1
20260904061210 80 201 0.0 0.0 0.00 0.00 0.00 92 1016.2
20260904060706 80 201 0.0 0.0 0.00 0.00 0.00 92 1016.3
20260904060201 80 197 0.0 0.0 0.00 0.00 0.00 92 1016.4
20260904055656 80 195 0.0 0.0 0.00 0.00 0.00 92 1016.5
20260904055152 80 198 0.0 1.0 0.00 0.00 0.00 92 1016.6
20260904054647 80 203 0.0 0.0 0.00 0.00 0.00 92 1016.7
20260904054144 80 198 0.0 0.0 0.00 0.00 0.00 92 1016.7
20260904053644 80 190 0.0 0.0 0.00 0.00 0.00 92 1016.7
20260904053138 80 201 0.0 1.0 0.00 0.00 0.00 92 1016.8
20260904052635 80 179 0.0 0.0 0.00 0.00 0.00 92 1016.9
20260904052130 80 195 0.0 1.0 0.00 0.00 0.00 91 1016.8
20260904051627 80 181 0.0 0.0 0.00 0.00 0.00 91 1016.7
20260904051126 80 197 0.0 0.0 0.00 0.00 0.00 91 1016.9
20260904050616 80 201 0.0 2.0 0.00 0.00 0.00 91 1016.9
20260904050113 80 199 0.0 0.0 0.00 0.00 0.00 91 1016.9
20260904045607 80 169 0.0 1.0 0.00 0.00 0.00 91 1017.0
20260904045101 80 194 0.0 1.0 0.00 0.00 0.00 91 1016.9
20260904044557 80 193 0.0 1.0 0.00 0.00 0.00 91 1017.1
20260904044054 80 195 0.0 0.0 0.00 0.00 0.00 91 1017.0
20260904043550 80 183 0.0 1.0 0.00 0.00 0.00 91 1017.2
20260904043046 80 186 0.0 2.0 0.00 0.00 0.00 91 1016.9
20260904042542 80 188 0.0 1.0 0.00 0.00 0.00 91 1016.9
20260904042037 80 177 0.0 2.0 0.00 0.00 0.00 91 1017.0
20260904041532 80 164 2.0 2.0 0.00 0.00 0.00 91 1016.8
20260904041028 80 173 0.0 1.0 0.00 0.00 0.00 91 1016.9
20260904040528 80 158 0.0 2.0 0.00 0.00 0.00 91 1017.0
20260904040026 80 207 0.0 3.0 0.00 0.00 0.00 91 1017.2
20260904035525 80 143 0.0 3.0 0.00 0.00 0.00 91 1017.0
20260904035025 80 184 1.0 3.0 0.00 0.00 0.00 91 1017.1
20260904034520 80 169 0.0 0.0 0.00 0.00 0.00 91 1017.1
20260904034015 80 187 0.0 1.0 0.00 0.00 0.00 91 1017.2
20260904033511 80 201 0.0 0.0 0.00 0.00 0.00 90 1017.3
20260904033008 80 197 0.0 0.0 0.00 0.00 0.00 90 1017.2
20260904032503 80 269 0.0 0.0 0.00 0.00 0.00 90 1017.5
20260904032002 80 203 0.0 0.0 0.00 0.00 0.00 90 1017.4
20260904031457 80 199 0.0 0.0 0.00 0.00 0.00 90 1017.3
20260904030953 80 196 0.0 0.0 0.00 0.00 0.00 90 1017.5
20260904030448 80 201 0.0 1.0 0.00 0.00 0.00 90 1017.4
20260904025937 80 182 1.0 2.0 0.00 0.00 0.00 90 1017.5
20260904025434 80 182 0.0 0.0 0.00 0.00 0.00 90 1017.6
20260904024934 80 174 0.0 0.0 0.00 0.00 0.00 90 1017.4
20260904024429 80 204 0.0 0.0 0.00 0.00 0.00 89 1017.5
20260904023925 80 206 0.0 0.0 0.00 0.00 0.00 89 1017.6
20260904023421 80 208 0.0 0.0 0.00 0.00 0.00 89 1017.8
20260904022920 80 131 0.0 0.0 0.00 0.00 0.00 89 1017.5
20260904022417 80 177 0.0 1.0 0.00 0.00 0.00 89 1017.4
20260904021913 80 152 0.0 0.0 0.00 0.00 0.00 89 1017.4
20260904021409 80 179 0.0 0.0 0.00 0.00 0.00 89 1017.6
20260904020903 80 186 0.0 0.0 0.00 0.00 0.00 89 1017.4
20260904020359 81 187 0.0 0.0 0.00 0.00 0.00 89 1017.4
20260904015857 81 174 0.0 0.0 0.00 0.00 0.00 88 1017.3
20260904015353 81 224 0.0 0.0 0.00 0.00 0.00 88 1017.4
20260904014851 81 201 0.0 0.0 0.00 0.00 0.00 88 1017.3
20260904014346 81 175 0.0 0.0 0.00 0.00 0.00 88 1017.3
20260904013842 81 188 0.0 1.0 0.00 0.00 0.00 88 1017.1
20260904013338 81 172 0.0 0.0 0.00 0.00 0.00 88 1017.1
20260904012828 82 184 0.0 1.0 0.00 0.00 0.00 88 1016.9
20260904012323 82 172 0.0 1.0 0.00 0.00 0.00 88 1016.7
20260904011822 82 185 0.0 0.0 0.00 0.00 0.00 88 1016.7
20260904011317 82 195 0.0 0.0 0.00 0.00 0.00 87 1016.8
20260904010817 82 197 0.0 1.0 0.00 0.00 0.00 87 1016.5
20260904010314 82 192 0.0 2.0 0.00 0.00 0.00 87 1016.4
20260904005809 82 114 3.0 3.0 0.00 0.00 0.00 87 1016.5
20260904005306 82 163 1.0 2.0 0.00 0.00 0.00 87 1016.4
20260904004800 82 185 0.0 2.0 0.00 0.00 0.00 87 1016.3
20260904004256 82 146 1.0 2.0 0.00 0.00 0.00 87 1016.4
20260904003750 82 134 1.0 5.0 0.00 0.00 0.00 87 1016.1
20260904003247 82 128 2.0 3.0 0.00 0.00 0.00 86 1016.4
20260904002742 83 111 0.0 2.0 0.00 0.00 0.00 86 1016.2
20260904002238 83 152 1.0 1.0 0.00 0.00 0.00 86 1016.2
20260904001738 83 174 0.0 1.0 0.00 0.00 0.00 86 1016.2
20260904001238 83 165 0.0 0.0 0.00 0.00 0.00 86 1016.4
20260904000733 83 146 2.0 2.0 0.00 0.00 0.00 86 1016.1
20260904000227 83 118 0.0 1.0 0.00 0.00 0.00 85 1016.2
20260903235727 83 119 2.0 3.0 0.00 0.00 0.00 85 1016.1
20260903235224 83 131 3.0 3.0 0.00 0.00 0.00 85 1016.0
20260903234717 83 154 0.0 2.0 0.00 0.00 0.00 85 1016.2
20260903234214 83 178 0.0 2.0 0.00 0.00 0.00 85 1016.4
20260903233710 84 122 1.0 2.0 0.00 0.00 0.00 85 1016.2
20260903233206 84 151 1.0 1.0 0.00 0.00 0.00 85 1016.2
20260903232704 84 164 1.0 5.0 0.00 0.00 0.00 85 1016.3
20260903232201 84 112 2.0 6.0 0.00 0.00 0.00 85 1016.2
20260903231659 84 176 1.0 3.0 0.00 0.00 0.00 84 1016.5
20260903231154 84 152 4.0 5.0 0.00 0.00 0.00 84 1016.3
20260903230651 84 124 1.0 3.0 0.00 0.00 0.00 84 1016.4
20260903230150 84 87 2.0 2.0 0.00 0.00 0.00 84 1016.3
20260903225647 84 144 2.0 8.0 0.00 0.00 0.00 84 1016.2
20260903225143 84 144 4.0 8.0 0.00 0.00 0.00 84 1016.4
20260903224638 85 157 1.0 5.0 0.00 0.00 0.00 84 1016.1
20260903224134 85 119 2.0 5.0 0.00 0.00 0.00 84 1016.1
20260903223624 85 213 2.0 5.0 0.00 0.00 0.00 84 1015.9
20260903223122 85 133 4.0 6.0 0.00 0.00 0.00 83 1016.1
20260903222617 85 118 4.0 6.0 0.00 0.00 0.00 83 1016.2
20260903222116 85 117 6.0 9.0 0.00 0.00 0.00 83 1016.3
20260903221612 85 144 5.0 9.0 0.00 0.00 0.00 83 1016.3
20260903221110 85 201 1.0 6.0 0.00 0.00 0.00 84 1016.4
20260903220609 85 236 1.0 5.0 0.00 0.00 0.00 84 1016.4
20260903220109 85 149 4.0 5.0 0.00 0.00 0.00 84 1016.6
20260903215608 85 119 5.0 8.0 0.00 0.00 0.00 83 1016.4
20260903215102 85 212 0.0 9.0 0.00 0.00 0.00 83 1016.1
20260903214601 85 120 3.0 3.0 0.00 0.00 0.00 83 1016.5
20260903214057 85 193 1.0 7.0 0.00 0.00 0.00 83 1016.2
20260903213552 85 172 4.0 9.0 0.00 0.00 0.00 83 1016.4
20260903213048 85 132 4.0 9.0 0.00 0.00 0.00 83 1016.5
20260903212543 85 190 1.0 10.0 0.00 0.00 0.00 83 1016.5
20260903212039 85 90 5.0 7.0 0.00 0.00 0.00 83 1016.6
20260903211534 85 46 2.0 5.0 0.00 0.00 0.00 83 1016.7
20260903211031 86 184 1.0 6.0 0.00 0.00 0.00 83 1016.5
20260903210530 86 144 4.0 8.0 0.00 0.00 0.00 83 1016.8
20260903210026 86 147 4.0 10.0 0.00 0.00 0.00 83 1016.7
20260903205520 86 137 7.0 8.0 0.00 0.00 0.00 83 1016.7
20260903205014 86 135 6.0 11.0 0.00 0.00 0.00 82 1016.6
20260903204504 86 117 4.0 15.0 0.00 0.00 0.00 82 1016.8
20260903203959 86 115 3.0 8.0 0.00 0.00 0.00 82 1016.9
20260903203455 86 88 5.0 14.0 0.00 0.00 0.00 82 1016.9
20260903202954 86 154 2.0 7.0 0.00 0.00 0.00 82 1016.9
20260903202451 86 167 6.0 10.0 0.00 0.00 0.00 82 1016.9
20260903201950 86 94 0.0 9.0 0.00 0.00 0.00 82 1016.6
20260903201440 86 98 7.0 9.0 0.00 0.00 0.00 82 1017.0
20260903200939 86 209 4.0 13.0 0.00 0.00 0.00 82 1016.9
20260903200434 86 101 4.0 7.0 0.00 0.00 0.00 82 1016.9
20260903195929 86 350 7.0 9.0 0.00 0.00 0.00 81 1017.1
20260903195426 86 159 3.0 7.0 0.00 0.00 0.00 82 1016.8
20260903194920 86 136 5.0 14.0 0.00 0.00 0.00 81 1017.1
20260903194416 87 163 2.0 11.0 0.00 0.00 0.00 81 1017.2
20260903193911 87 118 3.0 10.0 0.00 0.00 0.00 80 1017.1
20260903193408 87 271 1.0 7.0 0.00 0.00 0.00 80 1017.2
20260903192902 87 176 3.0 6.0 0.00 0.00 0.00 79 1017.3
20260903192358 87 33 4.0 8.0 0.00 0.00 0.00 79 1017.2
20260903191854 87 268 2.0 6.0 0.00 0.00 0.00 80 1017.3
20260903191350 87 129 4.0 10.0 0.00 0.00 0.00 80 1017.4
20260903190849 87 82 3.0 10.0 0.00 0.00 0.00 79 1017.2
20260903190344 87 211 5.0 9.0 0.00 0.00 0.00 79 1017.3
20260903185843 87 31 2.0 10.0 0.00 0.00 0.00 79 1017.3
20260903185338 87 125 2.0 6.0 0.00 0.00 0.00 78 1017.2
20260903184834 88 72 4.0 7.0 0.00 0.00 0.00 77 1017.5
20260903184331 88 144 2.0 6.0 0.00 0.00 0.00 77 1017.5
20260903183826 88 137 6.0 10.0 0.00 0.00 0.00 77 1017.5
20260903183320 88 108 6.0 8.0 0.00 0.00 0.00 77 1017.6
20260903182819 88 148 6.0 10.0 0.00 0.00 0.00 77 1017.4
20260903182314 88 167 1.0 5.0 0.00 0.00 0.00 76 1017.6
20260903181814 88 128 3.0 7.0 0.00 0.00 0.00 76 1017.6
20260903181308 88 182 6.0 9.0 0.00 0.00 0.00 76 1017.9
20260903180803 88 178 2.0 11.0 0.00 0.00 0.00 76 1017.5
20260903180303 88 181 2.0 7.0 0.00 0.00 0.00 76 1017.7
20260903175802 88 181 5.0 10.0 0.00 0.00 0.00 75 1017.7
20260903175301 88 115 7.0 10.0 0.00 0.00 0.00 75 1017.7
20260903174800 89 97 10.0 11.0 0.00 0.00 0.00 75 1017.8
20260903174256 89 131 5.0 8.0 0.00 0.00 0.00 75 1017.8
20260903173751 89 151 6.0 9.0 0.00 0.00 0.00 75 1017.8
20260903173247 89 86 7.0 9.0 0.00 0.00 0.00 75 1017.7
20260903172742 89 116 4.0 6.0 0.00 0.00 0.00 75 1017.6
20260903172237 89 114 9.0 13.0 0.00 0.00 0.00 76 1017.6
20260903171732 89 192 4.0 8.0 0.00 0.00 0.00 76 1017.8
20260903171227 89 44 1.0 3.0 0.00 0.00 0.00 76 1017.7
20260903170725 89 115 7.0 9.0 0.00 0.00 0.00 75 1017.9
20260903170221 89 187 2.0 7.0 0.00 0.00 0.00 76 1017.9
20260903165720 89 185 1.0 7.0 0.00 0.00 0.00 75 1018.2
20260903165215 89 150 2.0 5.0 0.00 0.00 0.00 75 1018.2
20260903164709 89 60 2.0 7.0 0.00 0.00 0.00 74 1018.3
20260903164206 89 90 3.0 9.0 0.00 0.00 0.00 75 1018.5
20260903163705 89 164 1.0 7.0 0.00 0.00 0.00 76 1018.3
20260903163202 88 143 3.0 7.0 0.00 0.00 0.00 76 1018.3
20260903162657 88 7 1.0 7.0 0.00 0.00 0.00 76 1018.5
20260903162153 89 110 3.0 8.0 0.00 0.00 0.00 78 1018.3
20260903161648 88 41 3.0 8.0 0.00 0.00 0.00 77 1018.3
20260903161137 89 146 5.0 8.0 0.00 0.00 0.00 77 1018.2
20260903160633 89 88 2.0 8.0 0.00 0.00 0.00 79 1018.3
20260903160127 89 173 2.0 5.0 0.00 0.00 0.00 79 1018.5
20260903155626 88 173 3.0 5.0 0.00 0.00 0.00 79 1018.3
20260903155121 87 142 1.0 5.0 0.00 0.00 0.00 79 1018.6
20260903154617 87 141 2.0 7.0 0.00 0.00 0.00 80 1018.6
20260903154113 86 54 4.0 5.0 0.00 0.00 0.00 79 1018.4
20260903153608 87 161 4.0 9.0 0.00 0.00 0.00 79 1018.4
20260903153104 87 172 1.0 3.0 0.00 0.00 0.00 79 1018.6
20260903152600 88 148 2.0 5.0 0.00 0.00 0.00 79 1018.5
20260903152056 88 105 1.0 5.0 0.00 0.00 0.00 80 1018.4
20260903151555 87 132 2.0 6.0 0.00 0.00 0.00 80 1018.3
20260903151051 87 120 2.0 3.0 0.00 0.00 0.00 79 1018.3
20260903150550 88 146 1.0 3.0 0.00 0.00 0.00 79 1018.5
20260903150046 88 106 3.0 8.0 0.00 0.00 0.00 79 1018.5
20260903145545 87 135 1.0 8.0 0.00 0.00 0.00 80 1018.3
20260903145041 87 165 2.0 7.0 0.00 0.00 0.00 80 1018.1
20260903144539 87 164 1.0 8.0 0.00 0.00 0.00 81 1018.3
20260903144036 87 132 5.0 6.0 0.00 0.00 0.00 82 1018.2
20260903143532 86 155 4.0 7.0 0.00 0.00 0.00 83 1018.2
20260903143027 86 109 2.0 5.0 0.00 0.00 0.00 85 1018.2
20260903142522 85 91 1.0 3.0 0.00 0.00 0.00 85 1018.3
20260903142019 85 131 3.0 5.0 0.00 0.00 0.00 85 1018.3
20260903141515 85 152 3.0 5.0 0.00 0.00 0.00 86 1018.1
20260903141010 85 33 6.0 8.0 0.00 0.00 0.00 86 1018.2
20260903140505 85 23 7.0 8.0 0.00 0.00 0.00 86 1018.0
20260903140000 85 17 5.0 7.0 0.00 0.00 0.00 87 1017.9
20260903135456 86 139 1.0 2.0 0.00 0.00 0.00 88 1018.0
20260903134950 85 162 1.0 3.0 0.00 0.00 0.00 89 1018.1
20260903134449 85 120 1.0 3.0 0.00 0.00 0.00 90 1018.1
20260903133946 84 157 1.0 3.0 0.00 0.00 0.00 89 1018.3
20260903133443 84 144 0.0 3.0 0.00 0.00 0.00 91 1018.1
20260903132938 83 128 1.0 2.0 0.00 0.00 0.00 91 1018.0
20260903132434 83 154 1.0 5.0 0.00 0.00 0.00 92 1018.1
20260903131933 82 97 1.0 3.0 0.00 0.00 0.00 93 1018.0
20260903131428 82 41 3.0 7.0 0.00 0.00 0.00 94 1018.2
20260903130922 81 100 1.0 2.0 0.00 0.00 0.00 94 1018.0
20260903130417 81 125 0.0 3.0 0.00 0.00 0.00 95 1018.0
20260903125915 80 106 2.0 3.0 0.00 0.00 0.00 95 1018.1
20260903125410 80 120 1.0 1.0 0.00 0.00 0.00 96 1018.4
20260903124909 79 120 0.0 2.0 0.00 0.00 0.00 96 1018.2
20260903124405 79 128 0.0 0.0 0.00 0.00 0.00 96 1018.5
20260903123903 79 128 0.0 0.0 0.00 0.00 0.00 96 1018.2
20260903123358 78 126 0.0 0.0 0.00 0.00 0.00 96 1018.3
20260903122857 78 114 0.0 2.0 0.00 0.00 0.00 95 1018.4
20260903122352 77 131 0.0 0.0 0.00 0.00 0.00 95 1018.3
20260903121851 77 127 0.0 1.0 0.00 0.00 0.00 95 1018.3
20260903121346 77 110 0.0 2.0 0.00 0.00 0.00 95 1018.4
20260903120842 77 82 0.0 3.0 0.00 0.00 0.00 95 1018.3
20260903120340 77 117 0.0 3.0 0.00 0.00 0.00 95 1018.2